| time (UTC) | temp F | wind direction | speed MPH | gust MPH | rain 1hr in | rain 24hr in | rain mn in | humidity % | barometer mb |
| 20260831131540 | 85 | 359 | 0.0 | 1.0 | 0.00 | 0.00 | 0.00 | 81 | 1019.0 |
| 20260831130037 | 83 | 359 | 0.0 | 1.0 | 0.00 | 0.00 | 0.00 | 84 | 1018.9 |
| 20260831124531 | 81 | 359 | 0.0 | 4.0 | 0.00 | 0.00 | 0.00 | 89 | 1019.0 |
| 20260831123027 | 79 | 359 | 1.0 | 4.0 | 0.00 | 0.00 | 0.00 | 93 | 1018.8 |
| 20260831121527 | 78 | 359 | 0.0 | 4.0 | 0.00 | 0.00 | 0.00 | 94 | 1018.7 |
| 20260831120025 | 78 | 23 | 1.0 | 5.0 | 0.00 | 0.00 | 0.00 | 94 | 1018.6 |
| 20260831114539 | 77 | 359 | 0.0 | 4.0 | 0.00 | 0.00 | 0.00 | 94 | 1018.5 |
| 20260831113018 | 77 | 359 | 1.0 | 4.0 | 0.00 | 0.00 | 0.00 | 95 | 1018.3 |
| 20260831111516 | 77 | 359 | 0.0 | 5.0 | 0.00 | 0.00 | 0.00 | 94 | 1018.3 |
| 20260831110015 | 76 | 359 | 0.0 | 3.0 | 0.00 | 0.00 | 0.00 | 94 | 1018.2 |
| 20260831104523 | 76 | 359 | 0.0 | 4.0 | 0.00 | 0.00 | 0.00 | 94 | 1017.9 |
| 20260831103015 | 77 | 359 | 0.0 | 4.0 | 0.00 | 0.00 | 0.00 | 94 | 1017.6 |
| 20260831101519 | 77 | 359 | 3.0 | 6.0 | 0.00 | 0.00 | 0.00 | 93 | 1017.6 |
| 20260831100014 | 77 | 359 | 0.0 | 2.0 | 0.00 | 0.00 | 0.00 | 94 | 1017.6 |
| 20260831094515 | 76 | 359 | 0.0 | 3.0 | 0.00 | 0.00 | 0.00 | 95 | 1017.7 |
| 20260831093011 | 77 | 359 | 0.0 | 1.0 | 0.00 | 0.00 | 0.00 | 94 | 1017.6 |
| 20260831091525 | 77 | 359 | 0.0 | 5.0 | 0.00 | 0.00 | 0.00 | 95 | 1017.6 |
| 20260831090017 | 77 | 359 | 0.0 | 0.0 | 0.00 | 0.00 | 0.00 | 95 | 1017.6 |
| 20260831084515 | 77 | 359 | 0.0 | 0.0 | 0.00 | 0.00 | 0.00 | 95 | 1017.5 |
| 20260831083009 | 77 | 359 | 0.0 | 1.0 | 0.00 | 0.00 | 0.00 | 94 | 1017.6 |
| 20260831081508 | 77 | 359 | 0.0 | 0.0 | 0.00 | 0.00 | 0.00 | 94 | 1017.6 |
| 20260831080006 | 77 | 359 | 0.0 | 2.0 | 0.00 | 0.00 | 0.00 | 94 | 1017.8 |
| 20260831074504 | 78 | 54 | 0.0 | 1.0 | 0.00 | 0.00 | 0.00 | 93 | 1018.0 |
| 20260831073004 | 78 | 60 | 0.0 | 0.0 | 0.00 | 0.00 | 0.00 | 93 | 1018.0 |
| 20260831071502 | 78 | 59 | 0.0 | 0.0 | 0.00 | 0.00 | 0.00 | 92 | 1017.9 |
| 20260831070100 | 79 | 60 | 0.0 | 0.0 | 0.00 | 0.00 | 0.00 | 92 | 1018.0 |
| 20260831064608 | 79 | 59 | 0.0 | 0.0 | 0.00 | 0.00 | 0.00 | 92 | 1018.2 |
| 20260831063056 | 79 | 60 | 0.0 | 0.0 | 0.00 | 0.00 | 0.00 | 91 | 1018.2 |
| 20260831061555 | 79 | 56 | 0.0 | 0.0 | 0.00 | 0.00 | 0.00 | 91 | 1018.4 |
| 20260831060054 | 79 | 57 | 0.0 | 0.0 | 0.00 | 0.00 | 0.00 | 91 | 1018.3 |
| 20260831054603 | 79 | 57 | 0.0 | 0.0 | 0.00 | 0.00 | 0.00 | 91 | 1018.6 |
| 20260831053052 | 79 | 57 | 0.0 | 0.0 | 0.00 | 0.00 | 0.00 | 90 | 1018.6 |
| 20260831051551 | 79 | 58 | 0.0 | 0.0 | 0.00 | 0.00 | 0.00 | 90 | 1018.6 |
| 20260831050054 | 79 | 359 | 0.0 | 0.0 | 0.00 | 0.00 | 0.00 | 90 | 1018.6 |
| 20260831044609 | 79 | 60 | 0.0 | 0.0 | 0.00 | 0.00 | 0.00 | 90 | 1018.6 |
| 20260831043048 | 79 | 59 | 0.0 | 0.0 | 0.00 | 0.00 | 0.00 | 90 | 1018.7 |
| 20260831041608 | 79 | 359 | 0.0 | 0.0 | 0.00 | 0.00 | 0.00 | 89 | 1018.7 |
| 20260831040046 | 79 | 58 | 0.0 | 0.0 | 0.00 | 0.00 | 0.00 | 89 | 1018.7 |
| 20260831034546 | 80 | 359 | 0.0 | 1.0 | 0.00 | 0.00 | 0.00 | 89 | 1018.7 |
| 20260831033044 | 80 | 359 | 0.0 | 1.0 | 0.00 | 0.00 | 0.00 | 90 | 1018.8 |
| 20260831031544 | 80 | 359 | 0.0 | 3.0 | 0.00 | 0.00 | 0.00 | 90 | 1018.8 |
| 20260831030050 | 80 | 359 | 0.0 | 4.0 | 0.00 | 0.00 | 0.00 | 90 | 1018.9 |
| 20260831024545 | 80 | 359 | 0.0 | 3.0 | 0.00 | 0.00 | 0.00 | 89 | 1018.9 |
| 20260831023043 | 80 | 359 | 0.0 | 4.0 | 0.00 | 0.00 | 0.00 | 89 | 1019.0 |
| 20260831021543 | 80 | 359 | 0.0 | 3.0 | 0.00 | 0.00 | 0.00 | 88 | 1018.9 |
| 20260831020042 | 80 | 44 | 0.0 | 1.0 | 0.00 | 0.00 | 0.00 | 88 | 1019.0 |
| 20260831014541 | 80 | 359 | 0.0 | 1.0 | 0.00 | 0.00 | 0.00 | 87 | 1019.2 |
| 20260831013043 | 81 | 359 | 0.0 | 2.0 | 0.00 | 0.00 | 0.00 | 88 | 1019.1 |
| 20260831011546 | 81 | 359 | 0.0 | 2.0 | 0.00 | 0.00 | 0.00 | 87 | 1018.9 |
| 20260831010040 | 81 | 359 | 0.0 | 4.0 | 0.00 | 0.00 | 0.00 | 87 | 1019.0 |
| 20260831004540 | 81 | 359 | 2.0 | 6.0 | 0.00 | 0.00 | 0.00 | 87 | 1018.8 |
| 20260831003042 | 81 | 359 | 1.0 | 8.0 | 0.00 | 0.00 | 0.00 | 86 | 1018.7 |
| 20260831001539 | 81 | 359 | 2.0 | 8.0 | 0.00 | 0.00 | 0.00 | 86 | 1018.6 |
| 20260831000039 | 82 | 359 | 1.0 | 10.0 | 0.00 | 0.00 | 0.00 | 84 | 1018.6 |
| 20260830234544 | 82 | 47 | 0.0 | 3.0 | 0.00 | 0.00 | 0.00 | 83 | 1018.5 |
| 20260830233038 | 82 | 359 | 0.0 | 3.0 | 0.00 | 0.00 | 0.00 | 83 | 1018.4 |
| 20260830231546 | 82 | 359 | 0.0 | 1.0 | 0.00 | 0.00 | 0.00 | 83 | 1018.5 |
| 20260830230044 | 82 | 18 | 0.0 | 5.0 | 0.00 | 0.00 | 0.00 | 83 | 1018.4 |
| 20260830224542 | 83 | 359 | 0.0 | 6.0 | 0.00 | 0.00 | 0.00 | 82 | 1018.3 |
| 20260830223036 | 83 | 359 | 0.0 | 9.0 | 0.00 | 0.00 | 0.00 | 82 | 1018.3 |
| 20260830221535 | 84 | 359 | 1.0 | 8.0 | 0.00 | 0.00 | 0.00 | 81 | 1018.2 |
| 20260830220036 | 84 | 359 | 1.0 | 9.0 | 0.00 | 0.00 | 0.00 | 81 | 1018.1 |
| 20260830214536 | 84 | 359 | 2.0 | 8.0 | 0.00 | 0.00 | 0.00 | 80 | 1017.9 |
| 20260830213034 | 84 | 98 | 2.0 | 11.0 | 0.00 | 0.00 | 0.00 | 80 | 1018.1 |
| 20260830211534 | 84 | 359 | 1.0 | 9.0 | 0.00 | 0.00 | 0.00 | 81 | 1018.0 |
| 20260830210032 | 84 | 359 | 0.0 | 9.0 | 0.00 | 0.00 | 0.00 | 80 | 1018.0 |
| 20260830204531 | 85 | 359 | 0.0 | 5.0 | 0.00 | 0.00 | 0.00 | 79 | 1018.2 |
| 20260830203036 | 85 | 359 | 0.0 | 5.0 | 0.00 | 0.00 | 0.00 | 78 | 1018.4 |
| 20260830201537 | 85 | 359 | 2.0 | 9.0 | 0.00 | 0.00 | 0.00 | 78 | 1018.5 |
| 20260830200030 | 85 | 359 | 2.0 | 12.0 | 0.00 | 0.00 | 0.00 | 77 | 1018.6 |
| 20260830194530 | 85 | 359 | 1.0 | 11.0 | 0.00 | 0.00 | 0.00 | 76 | 1018.7 |
| 20260830193037 | 85 | 359 | 5.0 | 12.0 | 0.00 | 0.00 | 0.00 | 75 | 1018.8 |
| 20260830191528 | 87 | 47 | 0.0 | 8.0 | 0.00 | 0.00 | 0.00 | 73 | 1018.8 |
| 20260830190028 | 86 | 359 | 4.0 | 13.0 | 0.00 | 0.00 | 0.00 | 74 | 1018.7 |
| 20260830184528 | 86 | 359 | 3.0 | 13.0 | 0.00 | 0.00 | 0.00 | 73 | 1019.0 |
| 20260830183027 | 87 | 359 | 0.0 | 14.0 | 0.00 | 0.00 | 0.00 | 73 | 1019.1 |
| 20260830181527 | 87 | 359 | 0.0 | 5.0 | 0.00 | 0.00 | 0.00 | 72 | 1019.1 |
| 20260830180048 | 86 | 359 | 4.0 | 11.0 | 0.00 | 0.00 | 0.00 | 74 | 1019.2 |
| 20260830174525 | 87 | 359 | 0.0 | 8.0 | 0.00 | 0.00 | 0.00 | 72 | 1019.4 |
| 20260830173035 | 85 | 359 | 0.0 | 12.0 | 0.00 | 0.00 | 0.00 | 75 | 1019.6 |
| 20260830171524 | 86 | 359 | 0.0 | 8.0 | 0.00 | 0.00 | 0.00 | 74 | 1019.9 |
| 20260830170024 | 86 | 359 | 0.0 | 6.0 | 0.00 | 0.00 | 0.00 | 74 | 1020.1 |
| 20260830164522 | 85 | 359 | 1.0 | 11.0 | 0.00 | 0.00 | 0.00 | 75 | 1020.4 |
| 20260830163023 | 86 | 359 | 0.0 | 9.0 | 0.00 | 0.00 | 0.00 | 75 | 1020.0 |
| 20260830161523 | 86 | 359 | 0.0 | 4.0 | 0.00 | 0.00 | 0.00 | 75 | 1020.0 |
| 20260830160020 | 85 | 359 | 0.0 | 3.0 | 0.00 | 0.00 | 0.00 | 77 | 1019.9 |
| 20260830154520 | 85 | 359 | 0.0 | 1.0 | 0.00 | 0.00 | 0.00 | 76 | 1020.0 |
| 20260830153018 | 87 | 359 | 0.0 | 0.0 | 0.00 | 0.00 | 0.00 | 72 | 1020.3 |
| 20260830151515 | 85 | 359 | 0.0 | 1.0 | 0.00 | 0.00 | 0.00 | 76 | 1020.3 |
| 20260830150024 | 85 | 359 | 0.0 | 0.0 | 0.00 | 0.00 | 0.00 | 77 | 1020.4 |
| 20260830144509 | 84 | 359 | 0.0 | 0.0 | 0.00 | 0.00 | 0.00 | 78 | 1020.4 |
| 20260830143006 | 83 | 359 | 0.0 | 0.0 | 0.00 | 0.00 | 0.00 | 81 | 1020.5 |
| 20260830141509 | 83 | 359 | 0.0 | 0.0 | 0.00 | 0.00 | 0.00 | 80 | 1020.5 |
| 20260830140002 | 82 | 359 | 0.0 | 0.0 | 0.00 | 0.00 | 0.00 | 81 | 1020.5 |
| 20260830134600 | 82 | 359 | 0.0 | 0.0 | 0.00 | 0.00 | 0.00 | 81 | 1020.5 |
| 20260830133110 | 82 | 359 | 0.0 | 1.0 | 0.00 | 0.00 | 0.00 | 82 | 1020.5 |